Location: Campestrin
(46.4667°N, 11.7167°E)
Time: 09:34:37
(UTC+00:00)

Cosmos 1302 Rocket - Pass Details

Date: 18 April 2021
Orbit: 756 x 777 km, 74.0° (Epoch: 06 May)

Event Time Altitude Azimuth Distance (km) Brightness Sun altitude
Rises 18:26:27 0° 338° (NNW) 3,268 8.0 -4.3°
Reaches altitude 10° 18:28:51 10° 338° (NNW) 2,336 7.2 -4.7°
Maximum altitude 18:34:10 89° 70° (ENE) 782 4.1 -5.5°
Drops below altitude 10° 18:39:27 10° 160° (SSE) 2,313 6.1 -6.4°
Sets 18:41:48 0° 160° (SSE) 3,233 6.8 -6.7°
